Probability
3 3 3 2 1 0 0 0 0 0 0 0 0 0 0 0 0 0 0 0 0 0 0 0 0 0 0 0 0 0 0 0 0 0 0 0 0 0 0 0 0 0 0
3 3 3 2 1 0 0 0 0 0 0 0 0 0 0 0 0 0 0 0 0 0 0 0 0 0 0 0 0 0 0 0 0 0 0 0 0 0 0 0 0 0 0
2 3 3 2 0 0 0 0 0 0 0 0 0 0 0 0 0 0 0 0 0 0 0 0 0 0 0 0 0 0 0 0 0 0 0 0 0 0 0 0 0 0 0
1 2 3 2 1 1 0 0 0 1 1 1 0 0 0 0 0 0 0 0 0 0 0 0 0 0 0 0 0 0 0 0 0 0 0 0 0 0 0 0 0 0 0
1 2 2 2 2 2 1 0 0 1 2 1 0 0 0 0 0 0 0 0 0 0 0 0 0 0 0 0 0 0 0 0 0 0 0 0 0 0 0 0 0 0 0
0 1 1 1 1 1 1 0 0 0 1 1 0 0 0 0 0 0 0 0 0 0 0 0 0 0 0 0 0 0 0 0 0 0 0 0 0 0 0 0 0 0 0
1 0 1 2 2 1 0 0 0 0 0 0 0 0 0 0 0 0 0 0 0 0 0 0 0 0 0 0 0 0 0 0 0 0 0 0 0 0 0 0 0 0 0
2 2 3 4 4 3 1 0 0 0 0 0 0 0 0 0 0 0 0 1 0 0 0 0 0 0 0 0 0 0 0 0 0 0 0 0 0 0 0 0 0 0 0
5 5 5 6 7 5 2 1 0 1 1 1 1 0 0 0 0 0 0 0 0 0 0 0 0 0 0 0 0 0 0 0 0 0 0 0 0 0 0 0 0 0 0
7 7 7 8 8 6 4 2 1 1 2 3 2 1 0 0 0 0 0 0 0 0 0 0 0 0 0 0 0 0 0 0 0 0 0 0 0 0 0 0 0 0 0
8 7 6 7 8 7 4 3 3 3 3 3 3 1 1 0 0 0 0 0 0 0 0 0 0 0 0 0 0 0 0 0 0 0 0 0 0 0 0 0 0 0 0
9 8 6 5 6 5 3 3 3 3 3 3 3 3 2 1 0 0 0 0 0 0 0 0 0 0 0 0 0 0 0 0 0 0 0 0 0 0 0 0 0 0 0
11 9 7 5 4 3 2 2 2 2 3 3 3 4 4 3 2 2 1 0 0 0 0 0 0 0 0 0 0 0 0 0 0 0 0 0 0 0 0 0 0 0 0
13 10 8 6 4 3 3 2 2 1 1 3 3 3 4 3 3 2 1 0 0 0 0 0 0 0 0 0 0 0 0 0 0 0 0 0 0 0 0 0 0 0 0
12 11 9 6 4 4 3 3 2 1 1 2 3 3 3 4 4 3 2 1 1 0 0 0 0 0 0 0 0 0 0 0 0 0 0 0 0 0 0 0 0 0 0
11 12 11 8 6 5 5 4 3 2 1 1 2 2 3 5 5 3 3 3 1 0 0 0 0 0 0 0 0 0 0 0 0 0 0 0 0 0 0 0 0 0 0
12 13 13 10 8 8 8 6 4 2 1 1 1 1 3 4 4 2 2 2 1 1 0 0 0 1 1 1 1 1 0 0 0 0 0 0 0 0 0 0 0 0 0
12 12 12 10 9 9 9 7 5 4 3 3 3 2 1 1 1 1 1 1 1 1 1 0 1 2 2 2 3 2 1 1 1 0 0 0 0 0 0 0 0 0 0
14 13 11 9 7 7 7 7 6 6 6 5 4 3 1 0 0 0 0 0 1 1 1 1 1 2 2 3 4 3 2 3 2 1 0 0 0 0 0 0 0 0 0
16 14 11 8 7 6 6 6 6 6 7 7 5 3 2 0 0 0 0 0 1 2 1 1 0 1 2 3 4 5 5 5 3 1 1 1 1 1 0 0 0 0 0
16 14 10 7 6 6 6 6 6 6 7 8 7 4 2 0 0 0 0 0 1 1 1 1 0 1 2 4 6 6 5 5 3 2 2 2 2 1 1 0 0 0 0
18 15 11 7 6 5 4 3 4 5 6 6 6 4 2 0 0 0 0 0 0 0 1 1 0 0 1 4 5 5 4 3 2 2 2 2 1 1 1 1 0 0 0
20 17 13 10 8 4 2 1 1 3 3 3 3 4 3 1 0 0 1 1 1 1 1 1 0 0 1 2 2 2 3 3 2 2 2 2 1 1 0 0 0 0 0
19 18 15 13 10 5 1 0 0 1 2 2 4 5 5 3 1 0 1 2 2 2 1 0 0 0 0 0 0 1 2 2 2 2 2 3 3 2 1 0 0 0 0
17 16 15 14 13 8 3 0 0 1 4 6 7 7 5 3 1 0 1 2 3 2 1 0 0 0 0 0 0 1 2 2 1 1 3 3 4 3 1 0 0 0 0
15 15 14 15 15 11 4 0 1 3 7 9 10 9 4 2 1 0 1 2 2 1 0 0 0 0 0 0 0 1 2 2 1 1 3 4 4 3 1 1 1 1 0
Wind_Speed
4 4 3 2 3 3 4 3 2 3 2 2 2 3 3 3 3 3 6 8 6 6 6 6 6 6 6 6 5 6 6 6 5 5 5 6 6 6 6 6 6 6 6
4 4 4 3 3 3 2 2 3 3 2 2 2 3 2 3 3 2 4 7 7 6 6 6 6 6 6 6 6 6 6 6 6 6 5 5 5 6 6 6 6 5 5
4 3 3 4 3 3 3 2 3 2 2 2 2 2 2 2 3 2 2 2 6 8 6 6 6 6 6 7 6 7 6 6 6 6 6 6 6 6 6 6 6 6 5
4 3 3 3 3 3 3 3 3 2 1 1 1 1 1 2 3 2 2 2 2 4 7 7 6 6 6 7 7 7 7 7 7 7 7 7 6 6 6 6 5 6 6
5 4 3 3 4 3 3 3 3 2 1 1 2 2 1 2 1 2 2 2 2 2 3 8 7 6 6 6 6 6 7 7 7 8 8 8 7 7 7 6 6 7 7
5 4 4 4 4 3 3 2 2 1 1 1 1 1 1 1 2 2 3 3 3 3 3 4 5 7 7 5 5 5 6 7 7 7 7 8 8 8 7 7 7 7 7
6 5 3 4 4 3 3 4 3 4 3 2 2 2 3 3 2 2 2 2 3 3 2 3 3 2 5 8 5 4 4 5 6 6 7 7 7 8 8 8 8 7 7
6 6 5 4 4 3 4 4 3 3 2 3 3 2 2 4 4 3 3 3 3 3 3 3 3 2 2 3 5 5 4 3 4 5 5 6 6 7 8 8 8 8 8
7 5 5 4 4 4 4 4 4 4 3 3 2 3 2 1 2 3 3 2 2 2 2 3 4 4 4 3 4 7 4 3 3 4 4 5 5 6 7 7 8 8 8
7 6 5 5 5 4 3 5 4 3 4 3 3 2 3 3 2 2 4 4 4 3 2 2 3 4 4 3 3 5 5 3 3 3 3 4 5 6 6 7 8 8 9
7 7 6 5 5 4 4 3 3 4 4 4 3 3 3 3 4 3 2 3 4 4 4 3 3 3 4 3 3 6 5 4 3 3 3 4 4 5 6 7 8 8 9
6 8 7 6 6 4 5 4 4 5 4 3 4 4 3 3 3 3 2 3 3 3 3 3 3 3 3 3 3 8 5 4 4 3 3 4 5 6 7 7 8 8 9
6 7 7 6 6 5 5 4 4 4 4 4 5 4 3 3 2 3 3 2 2 2 3 4 4 3 3 3 4 7 7 5 4 4 5 5 5 6 7 8 8 8 8
6 7 7 7 7 6 6 5 5 5 4 4 5 3 3 3 3 3 3 3 3 3 4 3 3 4 2 3 4 6 6 7 5 5 5 5 5 6 6 6 6 6 7
6 8 8 8 7 7 6 6 5 5 4 5 5 6 5 3 3 3 3 3 3 3 2 4 3 2 3 2 4 5 4 7 6 5 5 5 5 6 6 7 7 7 7
7 8 9 8 8 7 7 7 6 5 5 5 3 3 4 4 3 3 3 3 3 4 3 1 2 2 1 2 5 4 3 8 8 7 6 6 6 6 7 7 8 8 8
8 9 9 9 9 8 8 7 7 6 7 6 5 5 5 4 3 3 3 3 3 3 4 2 2 2 2 4 2 3 4 6 6 11 8 7 7 7 8 8 8 9 9
9 9 9 9 9 8 8 8 8 7 7 7 6 5 6 4 4 4 3 4 3 3 5 3 2 3 4 4 3 5 5 5 4 8 10 8 8 8 8 8 9 9 9
9 9 9 9 9 8 8 8 7 7 7 6 6 6 6 5 5 4 4 4 4 4 4 4 4 2 3 3 4 6 6 4 7 5 10 11 10 9 9 9 10 10 10
9 9 9 9 8 8 8 8 8 7 7 6 6 6 6 6 6 6 5 5 4 4 4 5 4 3 4 3 4 5 5 4 5 5 3 4 8 12 12 11 11 10 10
9 9 9 9 8 8 8 8 8 8 7 7 7 7 7 5 3 4 4 4 5 5 5 5 5 4 4 3 4 4 4 4 4 5 5 5 5 6 8 12 13 10 9
9 9 9 9 9 7 7 7 7 7 7 8 7 7 7 8 7 7 6 5 5 6 6 5 5 4 4 5 4 5 5 5 4 2 5 6 6 6 5 6 5 7 7
9 9 9 9 9 7 9 10 9 7 7 7 7 7 7 6 8 8 9 10 9 8 7 7 8 6 5 4 5 6 5 6 6 5 5 7 6 6 6 2 8 7 7
8 8 8 8 8 8 10 11 10 10 8 8 8 8 8 7 7 7 7 8 8 8 9 9 7 7 6 4 5 7 7 7 8 7 6 7 6 6 6 4 7 9 9
7 7 8 8 8 8 10 12 11 9 8 9 8 8 8 8 5 5 8 8 7 6 5 5 4 4 4 4 5 6 6 7 7 6 4 6 7 7 7 7 5 11 11
7 7 8 8 8 8 10 12 12 8 7 7 7 7 6 6 5 7 8 7 7 6 5 5 6 7 8 7 8 8 8 7 7 7 2 4 7 7 8 6 5 5 7
Wind_Direction
147 138 134 144 160 142 154 147 124 119 130 123 109 103 92 82 91 107 118 140 152 158 159 158 160 163 164 164 163 162 165 166 167 168 168 170 169 168 169 169 165 167 169
142 147 154 159 160 160 133 147 135 147 162 109 105 112 124 107 97 115 126 144 158 163 168 169 170 175 174 173 176 176 174 177 178 180 182 182 180 182 180 180 178 177 176
152 169 160 172 163 155 154 169 154 172 173 155 132 131 134 111 114 120 137 153 159 166 171 174 179 182 183 181 183 182 185 188 188 193 192 191 190 189 185 188 187 186 187
173 186 180 174 167 181 181 166 197 186 148 166 139 158 140 142 149 164 178 171 174 165 167 173 179 181 188 191 193 190 193 195 197 201 203 202 200 198 195 198 199 197 198
185 199 190 163 188 187 190 209 161 211 173 189 181 166 184 161 161 185 178 174 178 193 170 157 172 179 188 196 196 194 196 198 204 208 211 210 208 205 202 205 208 206 207
193 203 192 179 204 191 193 200 164 196 208 214 234 137 199 178 191 177 203 167 177 194 190 164 171 173 176 180 188 200 208 210 210 208 212 215 215 209 206 210 211 212 216
188 199 205 176 208 199 203 199 197 186 199 194 214 193 189 201 189 188 199 186 174 182 171 178 183 170 165 170 178 190 203 210 208 211 216 219 217 210 207 209 213 215 219
194 196 200 200 194 195 199 207 211 230 198 200 240 233 205 185 198 188 184 184 182 177 181 178 159 176 198 158 144 170 185 197 204 209 213 215 215 209 208 213 218 220 224
199 207 196 209 197 211 201 210 213 220 218 207 235 266 270 232 168 166 193 184 185 192 183 161 174 171 185 168 160 159 166 177 192 208 208 206 204 203 208 217 223 227 231
196 197 200 203 207 209 194 213 204 221 228 220 203 246 288 330 279 179 187 173 181 205 201 206 173 172 183 171 143 136 157 175 190 208 213 208 205 206 212 222 233 238 240
195 196 196 198 200 206 197 209 195 229 230 244 234 222 217 226 252 268 210 184 187 191 188 197 196 191 181 178 188 137 157 181 197 213 227 229 226 225 227 232 239 244 246
193 194 194 194 200 202 194 203 206 208 235 250 257 245 232 234 237 244 237 216 195 180 190 201 213 198 198 192 167 130 164 187 201 214 230 235 235 235 237 239 243 248 249
192 189 194 194 199 197 199 199 202 214 211 218 232 238 243 248 263 264 266 243 215 184 191 215 207 213 211 193 151 151 170 183 204 216 230 237 238 237 237 240 244 249 250
192 181 190 194 197 198 200 195 207 204 205 218 226 235 244 237 246 252 266 265 241 213 199 205 197 204 213 209 137 196 175 180 201 217 230 239 240 235 233 239 244 249 254
187 183 188 194 198 196 199 201 209 206 200 215 213 206 229 218 232 250 257 269 277 266 211 180 213 178 212 201 154 218 205 166 195 217 231 239 242 239 239 242 243 246 250
192 187 190 194 197 195 197 206 202 196 206 209 224 229 238 230 220 234 245 250 260 274 281 194 193 187 242 237 170 231 229 167 199 213 226 236 242 243 243 245 247 247 247
190 194 192 194 195 196 197 203 211 194 207 205 209 208 218 241 235 226 228 237 243 254 262 248 195 155 206 266 204 239 232 231 204 196 211 228 239 243 243 245 247 246 245
191 192 193 194 196 196 198 204 209 202 206 207 207 209 214 209 219 250 248 246 244 258 262 268 240 192 203 229 236 257 254 248 261 176 196 218 232 238 241 244 247 247 247
188 189 191 195 198 197 198 204 207 205 208 209 208 211 214 214 219 223 239 242 236 228 242 252 241 219 227 228 239 245 252 261 269 200 196 209 219 229 237 242 245 246 248
188 189 192 196 197 199 199 202 204 205 206 210 213 217 216 216 217 220 224 235 248 251 235 250 248 225 225 215 246 254 252 233 263 273 257 232 213 217 229 234 237 240 245
193 191 194 196 198 199 200 199 204 205 207 210 213 218 217 218 237 246 257 237 233 244 238 238 243 240 234 233 250 264 270 270 251 259 271 262 237 237 223 221 223 228 236
193 193 197 199 201 205 171 186 214 209 210 214 216 216 212 205 206 218 249 269 278 259 263 265 254 253 257 256 264 273 279 279 276 249 273 274 269 269 261 253 170 186 220
191 197 198 203 205 195 169 184 206 222 218 219 218 219 227 204 202 217 211 219 234 246 260 271 273 274 269 264 270 269 273 284 292 300 282 279 274 271 269 243 155 189 216
193 197 198 203 206 195 178 188 197 219 227 223 221 220 227 228 218 226 233 227 228 218 218 230 255 266 276 287 268 269 276 266 264 258 258 273 280 280 282 271 180 199 215
194 198 199 202 206 195 182 188 196 216 221 224 224 223 224 225 196 206 238 242 242 235 214 224 259 279 312 300 282 269 260 262 266 261 233 263 280 283 279 269 227 197 214
194 201 203 206 207 204 184 186 199 223 220 221 217 220 217 227 191 193 230 238 239 244 253 218 219 231 240 233 226 246 260 264 273 274 253 266 280 287 284 273 267 239 235